JBU1726 KFLL-KJAX

Flight info

Callsign JBU1726
Flight time N/A
Altitude 30000
Route FRSBE2 STYMY ORL HAINY QUBEN2
Aircraft A321/M-SDE3FGHIRWY/LB1

Departure

Time 2026-05-03 21:10
Airport Fort Lauderdale Hollywood International Airport (KFLL)

Arrival

Time N/A
Airport Jacksonville International Airport (KJAX)
Time Latitude Longitude Altitude Speed Heading
2026-05-03 20:21 26.07173 -80.14604 38 ft 0 kts 145°
2026-05-03 20:32 26.07187 -80.14613 22 ft 4 kts 181°
2026-05-03 20:32 26.07192 -80.14627 23 ft 4 kts 276°
2026-05-03 20:32 26.07193 -80.14632 23 ft 0 kts 292°
2026-05-03 20:38 26.07197 -80.14643 21 ft 5 kts 290°
2026-05-03 20:38 26.07213 -80.14698 21 ft 0 kts 284°
2026-05-03 20:38 26.07214 -80.14705 21 ft 4 kts 284°
2026-05-03 20:39 26.07219 -80.14730 21 ft 4 kts 279°
2026-05-03 20:39 26.07241 -80.14794 23 ft 14 kts 298°
2026-05-03 20:39 26.07317 -80.14846 22 ft 12 kts 344°
2026-05-03 20:39 26.07376 -80.14886 20 ft 8 kts 302°
2026-05-03 20:40 26.07378 -80.14917 20 ft 0 kts 275°
2026-05-03 20:40 26.07381 -80.14919 20 ft 1 kts 303°
2026-05-03 20:40 26.07426 -80.14976 20 ft 12 kts 312°
2026-05-03 20:40 26.07445 -80.14999 21 ft 1 kts 313°
2026-05-03 20:41 26.07459 -80.15015 20 ft 8 kts 315°
2026-05-03 20:41 26.07490 -80.15052 20 ft 0 kts 315°
2026-05-03 20:41 26.07490 -80.15054 20 ft 0 kts 296°
2026-05-03 20:41 26.07492 -80.15081 20 ft 6 kts 268°
2026-05-03 20:42 26.07490 -80.15126 19 ft 11 kts 268°
2026-05-03 20:42 26.07487 -80.15228 17 ft 17 kts 270°
2026-05-03 20:42 26.07491 -80.15378 16 ft 21 kts 271°
2026-05-03 20:42 26.07492 -80.15543 19 ft 22 kts 270°
2026-05-03 20:43 26.07493 -80.15728 19 ft 26 kts 271°
2026-05-03 20:43 26.07495 -80.15898 21 ft 18 kts 270°
2026-05-03 20:43 26.07495 -80.16028 25 ft 16 kts 270°
2026-05-03 20:43 26.07495 -80.16142 25 ft 14 kts 270°
2026-05-03 20:44 26.07497 -80.16222 25 ft 8 kts 271°
2026-05-03 20:44 26.07497 -80.16254 24 ft 3 kts 270°
2026-05-03 20:44 26.07497 -80.16257 24 ft 0 kts 270°
2026-05-03 20:45 26.07497 -80.16258 24 ft 0 kts 270°
2026-05-03 20:45 26.07497 -80.16267 24 ft 2 kts 270°
2026-05-03 20:45 26.07497 -80.16273 24 ft 1 kts 270°
2026-05-03 20:45 26.07497 -80.16283 24 ft 0 kts 268°
2026-05-03 20:46 26.07497 -80.16284 24 ft 0 kts 268°
2026-05-03 20:46 26.07497 -80.16285 24 ft 0 kts 268°
2026-05-03 20:46 26.07496 -80.16299 24 ft 3 kts 268°
2026-05-03 20:46 26.07496 -80.16309 24 ft 2 kts 268°
2026-05-03 20:47 26.07496 -80.16322 24 ft 3 kts 268°
2026-05-03 20:47 26.07496 -80.16361 24 ft 7 kts 271°
2026-05-03 20:47 26.07496 -80.16375 24 ft 2 kts 271°
2026-05-03 20:47 26.07497 -80.16397 24 ft 0 kts 271°
2026-05-03 20:48 26.07497 -80.16410 24 ft 3 kts 271°
2026-05-03 20:48 26.07497 -80.16418 24 ft 0 kts 271°
2026-05-03 20:49 26.07497 -80.16419 24 ft 0 kts 271°
2026-05-03 20:49 26.07497 -80.16420 24 ft 0 kts 270°
2026-05-03 20:49 26.07497 -80.16421 24 ft 0 kts 270°
2026-05-03 20:49 26.07497 -80.16422 24 ft 0 kts 270°
2026-05-03 20:50 26.07497 -80.16431 24 ft 5 kts 270°
2026-05-03 20:50 26.07497 -80.16452 24 ft 0 kts 270°
2026-05-03 20:50 26.07497 -80.16453 24 ft 1 kts 270°
2026-05-03 20:50 26.07497 -80.16462 24 ft 0 kts 271°
2026-05-03 20:51 26.07497 -80.16467 24 ft 0 kts 271°
2026-05-03 20:51 26.07497 -80.16468 24 ft 0 kts 271°
2026-05-03 20:52 26.07498 -80.16473 24 ft 0 kts 272°
2026-05-03 20:53 26.07496 -80.16492 25 ft 7 kts 266°
2026-05-03 20:53 26.07497 -80.16524 25 ft 2 kts 277°
2026-05-03 20:54 26.07497 -80.16527 25 ft 1 kts 277°
2026-05-03 20:54 26.07497 -80.16529 25 ft 0 kts 275°
2026-05-03 20:55 26.07497 -80.16530 25 ft 0 kts 275°
2026-05-03 20:56 26.07497 -80.16533 25 ft 0 kts 272°
2026-05-03 20:57 26.07497 -80.16534 25 ft 0 kts 272°
2026-05-03 20:59 26.07498 -80.16545 24 ft 3 kts 272°
2026-05-03 20:59 26.07498 -80.16560 24 ft 0 kts 269°
2026-05-03 20:59 26.07498 -80.16562 24 ft 0 kts 269°
2026-05-03 21:00 26.07497 -80.16570 24 ft 1 kts 268°
2026-05-03 21:00 26.07497 -80.16575 24 ft 0 kts 267°
2026-05-03 21:01 26.07499 -80.16596 24 ft 7 kts 280°
2026-05-03 21:01 26.07531 -80.16638 23 ft 7 kts 339°
2026-05-03 21:01 26.07539 -80.16639 23 ft 2 kts 354°
2026-05-03 21:02 26.07553 -80.16642 23 ft 0 kts 348°
2026-05-03 21:02 26.07555 -80.16642 23 ft 1 kts 358°
2026-05-03 21:02 26.07557 -80.16642 23 ft 0 kts 358°
2026-05-03 21:03 26.07558 -80.16642 23 ft 0 kts 356°
2026-05-03 21:03 26.07559 -80.16642 23 ft 0 kts 356°
2026-05-03 21:03 26.07560 -80.16642 23 ft 0 kts 356°
2026-05-03 21:04 26.07561 -80.16642 23 ft 0 kts 356°
2026-05-03 21:04 26.07572 -80.16643 22 ft 2 kts 359°
2026-05-03 21:04 26.07580 -80.16643 24 ft 0 kts
2026-05-03 21:05 26.07582 -80.16643 24 ft 0 kts
2026-05-03 21:05 26.07583 -80.16643 24 ft 0 kts
2026-05-03 21:05 26.07593 -80.16642 22 ft 2 kts 360°
2026-05-03 21:05 26.07594 -80.16642 22 ft 0 kts 360°
2026-05-03 21:06 26.07596 -80.16642 22 ft 0 kts 360°
2026-05-03 21:07 26.07629 -80.16642 22 ft 10 kts 360°
2026-05-03 21:08 26.07685 -80.16593 22 ft 10 kts 68°
2026-05-03 21:08 26.07694 -80.16534 23 ft 10 kts 87°
2026-05-03 21:08 26.07694 -80.16530 23 ft 0 kts 88°
2026-05-03 21:09 26.07694 -80.16529 23 ft 5 kts 88°
2026-05-03 21:09 26.07695 -80.16205 29 ft 77 kts 90°
2026-05-03 21:09 26.07688 -80.15362 18 ft 138 kts 90°
2026-05-03 21:10 26.07685 -80.14105 82 ft 179 kts 87°
2026-05-03 21:10 26.07734 -80.12741 775 ft 174 kts 84°
2026-05-03 21:10 26.07839 -80.11381 1399 ft 176 kts 83°
2026-05-03 21:10 26.07947 -80.10075 1736 ft 165 kts 83°
2026-05-03 21:11 26.08055 -80.08800 1867 ft 167 kts 83°
2026-05-03 21:11 26.08161 -80.07480 2034 ft 179 kts 84°
2026-05-03 21:11 26.08289 -80.06046 2222 ft 193 kts 80°
2026-05-03 21:11 26.08527 -80.04528 2424 ft 204 kts 77°
2026-05-03 21:12 26.08858 -80.02970 2683 ft 210 kts 75°
2026-05-03 21:12 26.09222 -80.01377 2933 ft 214 kts 75°
2026-05-03 21:12 26.09641 -79.99812 3115 ft 210 kts 64°